When you browse on this site, cookies collect data to enhance your experience and personalize the content and advertising you see.
Visit our Privacy Policy to learn more. By continuing to use the site, you agree to this use of cookies and data.
  • In United Kingdom
  • List of Countries
  • For 7 days
  • Water Temperature
  • Weather Map
  • Weather Widgets
  • user-avatar
    Login

    Hourly Weather Kiljava

    Today, 18 September, Wednesday

    Time Temperature Precipitation Wind Pressure Humidity
    00:00 +6°C° 0 mm 2 mps 742 mmHg 89%
    01:00 +6°C° 0 mm 2 mps 742 mmHg 91%
    02:00 +6°C° 0 mm 2 mps 742 mmHg 94%
    03:00 +6°C° 0 mm 2 mps 743 mmHg 95%
    04:00 +5°C° 0 mm 2 mps 743 mmHg 95%
    05:00 +5°C° 0 mm 2 mps 743 mmHg 96%
    06:00 +5°C° 0 mm 2 mps 744 mmHg 92%
    07:00 +5°C° 0 mm 3 mps 744 mmHg 88%
    08:00 +7°C° 0 mm 3 mps 745 mmHg 84%
    09:00 +8°C° 0 mm 3 mps 745 mmHg 77%
    10:00 +9°C° 0 mm 3 mps 746 mmHg 70%
    11:00 +10°C° 0 mm 3 mps 746 mmHg 62%
    12:00 +11°C° 0.1 mm 3 mps 746 mmHg 61%
    13:00 +11°C° 0.1 mm 3 mps 747 mmHg 60%
    14:00 +11°C° 0.1 mm 3 mps 747 mmHg 58%
    15:00 +11°C° 0.1 mm 3 mps 747 mmHg 61%
    16:00 +12°C° 0.1 mm 2 mps 748 mmHg 64%
    17:00 +10°C° 0.1 mm 2 mps 748 mmHg 66%
    18:00 +9°C° 0 mm 2 mps 749 mmHg 73%
    19:00 +7°C° 0 mm 2 mps 749 mmHg 80%
    20:00 +7°C° 0 mm 1 mps 749 mmHg 87%
    21:00 +6°C° 0 mm 1 mps 750 mmHg 87%
    22:00 +6°C° 0 mm 1 mps 750 mmHg 88%
    23:00 +5°C° 0 mm 1 mps 750 mmHg 88%

    Tomorrow, 19 September, Thursday

    Time Temperature Precipitation Wind Pressure Humidity
    00:00 +5°C° 0 mm 1 mps 751 mmHg 88%
    01:00 +4°C° 0 mm 1 mps 751 mmHg 88%
    02:00 +4°C° 0 mm 1 mps 751 mmHg 88%
    03:00 +4°C° 0 mm 1 mps 751 mmHg 88%
    04:00 +4°C° 0 mm 1 mps 751 mmHg 87%
    05:00 +4°C° 0 mm 1 mps 751 mmHg 87%
    06:00 +5°C° 0 mm 1 mps 751 mmHg 85%
    07:00 +5°C° 0 mm 1 mps 752 mmHg 82%
    08:00 +6°C° 0 mm 1 mps 752 mmHg 80%
    09:00 +7°C° 0 mm 1 mps 752 mmHg 74%
    10:00 +9°C° 0 mm 1 mps 752 mmHg 68%
    11:00 +9°C° 0 mm 2 mps 753 mmHg 61%
    12:00 +9°C° 0 mm 2 mps 753 mmHg 60%
    13:00 +10°C° 0 mm 2 mps 753 mmHg 59%
    14:00 +10°C° 0 mm 3 mps 753 mmHg 58%
    15:00 +9°C° 0.2 mm 3 mps 753 mmHg 61%
    16:00 +9°C° 0.2 mm 3 mps 753 mmHg 64%
    17:00 +8°C° 0.2 mm 3 mps 753 mmHg 67%
    18:00 +7°C° 0 mm 3 mps 753 mmHg 72%
    19:00 +5°C° 0 mm 3 mps 753 mmHg 77%
    20:00 +3°C° 0 mm 4 mps 754 mmHg 81%
    21:00 +3°C° 0 mm 4 mps 754 mmHg 81%
    22:00 +3°C° 0 mm 4 mps 754 mmHg 81%
    23:00 +1°C° 0 mm 4 mps 754 mmHg 81%

    Day after tomorrow, 20 September, Friday

    Time Temperature Precipitation Wind Pressure Humidity
    00:00 +2°C° 0 mm 3 mps 755 mmHg 83%
    01:00 +1°C° 0 mm 3 mps 755 mmHg 85%
    02:00 +1°C° 0 mm 3 mps 755 mmHg 87%
    03:00 +1°C° 0 mm 3 mps 755 mmHg 88%
    04:00 0°C° 0 mm 3 mps 755 mmHg 89%
    05:00 +1°C° 0 mm 2 mps 755 mmHg 90%
    06:00 +2°C° 0 mm 2 mps 756 mmHg 85%
    07:00 +2°C° 0 mm 2 mps 756 mmHg 80%
    08:00 +3°C° 0 mm 2 mps 756 mmHg 76%
    09:00 +5°C° 0 mm 2 mps 756 mmHg 67%
    10:00 +7°C° 0 mm 1 mps 756 mmHg 59%
    11:00 +9°C° 0 mm 1 mps 756 mmHg 50%
    12:00 +10°C° 0 mm 1 mps 756 mmHg 50%
    13:00 +9°C° 0 mm 2 mps 756 mmHg 50%
    14:00 +9°C° 0 mm 2 mps 756 mmHg 49%
    15:00 +9°C° 0 mm 2 mps 755 mmHg 55%
    16:00 +9°C° 0 mm 2 mps 755 mmHg 60%
    17:00 +8°C° 0 mm 2 mps 755 mmHg 65%
    18:00 +7°C° 0 mm 2 mps 754 mmHg 71%
    19:00 +7°C° 0 mm 2 mps 754 mmHg 77%
    20:00 +6°C° 0 mm 2 mps 754 mmHg 82%
    21:00 +6°C° 0.1 mm 2 mps 753 mmHg 84%
    22:00 +6°C° 0.1 mm 2 mps 753 mmHg 86%
    23:00 +6°C° 0.1 mm 2 mps 752 mmHg 88%

    21 September, Saturday

    Time Temperature Precipitation Wind Pressure Humidity
    00:00 +6°C° 0.5 mm 2 mps 752 mmHg 91%
    01:00 +7°C° 0.5 mm 2 mps 751 mmHg 94%
    02:00 +7°C° 0.5 mm 2 mps 751 mmHg 97%
    03:00 +7°C° 0.2 mm 2 mps 750 mmHg 97%
    04:00 +8°C° 0.2 mm 2 mps 749 mmHg 97%
    05:00 +8°C° 0.2 mm 3 mps 749 mmHg 97%
    06:00 +9°C° 0.2 mm 3 mps 748 mmHg 96%
    07:00 +8°C° 0.2 mm 4 mps 748 mmHg 94%
    08:00 +10°C° 0.2 mm 4 mps 747 mmHg 93%
    09:00 +9°C° 0.2 mm 5 mps 747 mmHg 92%
    10:00 +10°C° 0.2 mm 5 mps 747 mmHg 91%
    11:00 +10°C° 0.2 mm 5 mps 746 mmHg 89%
    12:00 +12°C° 0 mm 5 mps 746 mmHg 87%
    13:00 +12°C° 0 mm 5 mps 746 mmHg 84%
    14:00 +13°C° 0 mm 5 mps 746 mmHg 82%
    15:00 +13°C° 0.1 mm 5 mps 746 mmHg 81%
    16:00 +13°C° 0.1 mm 5 mps 746 mmHg 80%
    17:00 +12°C° 0.1 mm 5 mps 746 mmHg 79%
    18:00 +10°C° 0 mm 5 mps 747 mmHg 79%
    19:00 +9°C° 0 mm 5 mps 748 mmHg 79%
    20:00 +8°C° 0 mm 5 mps 748 mmHg 79%
    21:00 +7°C° 0 mm 5 mps 749 mmHg 75%
    22:00 +5°C° 0 mm 5 mps 750 mmHg 71%
    23:00 +3°C° 0 mm 5 mps 751 mmHg 67%

    22 September, Sunday

    Time Temperature Precipitation Wind Pressure Humidity
    00:00 +3°C° 0 mm 5 mps 751 mmHg 66%
    01:00 +2°C° 0 mm 5 mps 752 mmHg 66%
    02:00 +2°C° 0 mm 5 mps 753 mmHg 66%
    03:00 +2°C° 0 mm 5 mps 754 mmHg 66%
    04:00 +2°C° 0 mm 5 mps 754 mmHg 67%
    05:00 +1°C° 0 mm 4 mps 755 mmHg 67%
    06:00 +3°C° 0 mm 4 mps 755 mmHg 66%
    07:00 +3°C° 0 mm 4 mps 756 mmHg 65%
    08:00 +3°C° 0 mm 4 mps 756 mmHg 64%
    09:00 +4°C° 0 mm 4 mps 756 mmHg 60%
    10:00 +7°C° 0 mm 3 mps 757 mmHg 57%
    11:00 +8°C° 0 mm 3 mps 757 mmHg 53%
    12:00 +8°C° 0 mm 3 mps 757 mmHg 52%
    13:00 +9°C° 0 mm 3 mps 757 mmHg 51%
    14:00 +9°C° 0 mm 3 mps 757 mmHg 50%
    15:00 +9°C° 0 mm 2 mps 757 mmHg 53%
    16:00 +9°C° 0 mm 2 mps 757 mmHg 56%
    17:00 +9°C° 0 mm 2 mps 757 mmHg 58%
    18:00 +8°C° 0 mm 1 mps 757 mmHg 64%
    19:00 +7°C° 0 mm 1 mps 758 mmHg 70%
    20:00 +5°C° 0 mm 1 mps 758 mmHg 77%
    21:00 +5°C° 0 mm 1 mps 758 mmHg 78%
    22:00 +4°C° 0 mm 1 mps 758 mmHg 80%
    23:00 +4°C° 0 mm 1 mps 758 mmHg 81%

    23 September, Monday

    Time Temperature Precipitation Wind Pressure Humidity
    00:00 +3°C° 0 mm 1 mps 758 mmHg 82%
    01:00 +3°C° 0 mm 1 mps 759 mmHg 82%
    02:00 +2°C° 0 mm 1 mps 759 mmHg 82%
    03:00 +2°C° 0 mm 1 mps 759 mmHg 83%
    04:00 +2°C° 0 mm 1 mps 759 mmHg 83%
    05:00 +2°C° 0 mm 1 mps 759 mmHg 83%
    06:00 +2°C° 0 mm 1 mps 759 mmHg 80%
    07:00 +3°C° 0 mm 1 mps 759 mmHg 76%
    08:00 +4°C° 0 mm 1 mps 759 mmHg 73%
    09:00 +6°C° 0 mm 1 mps 759 mmHg 65%
    10:00 +7°C° 0 mm 1 mps 759 mmHg 58%
    11:00 +9°C° 0 mm 1 mps 759 mmHg 51%
    12:00 +10°C° 0 mm 1 mps 759 mmHg 48%
    13:00 +10°C° 0 mm 1 mps 758 mmHg 45%
    14:00 +11°C° 0 mm 1 mps 758 mmHg 42%
    15:00 +10°C° 0 mm 1 mps 758 mmHg 46%
    16:00 +9°C° 0 mm 1 mps 758 mmHg 49%
    17:00 +9°C° 0 mm 1 mps 757 mmHg 53%
    18:00 +7°C° 0 mm 1 mps 758 mmHg 58%
    19:00 +6°C° 0 mm 1 mps 758 mmHg 63%
    20:00 +4°C° 0 mm 1 mps 758 mmHg 68%
    21:00 +4°C° 0 mm 1 mps 758 mmHg 69%
    22:00 +4°C° 0 mm 1 mps 758 mmHg 70%
    23:00 +4°C° 0 mm 1 mps 758 mmHg 71%
    Show more